CST,Max TemperatureF,Mean TemperatureF,Min TemperatureF,Max Dew PointF,MeanDew PointF,Min DewpointF,Max Humidity, Mean Humidity, Min Humidity, Max Sea Level PressureIn, Mean Sea Level PressureIn, Min Sea Level PressureIn, Max VisibilityMiles, Mean VisibilityMiles, Min VisibilityMiles, Max Wind SpeedMPH, Mean Wind SpeedMPH, Max Gust SpeedMPH,PrecipitationIn, CloudCover, Events, WindDirDegrees
2013-1-1,18,1,-16,16,0,-22,93,85,79,30.16,30.01,29.84,10,8,1,15,4,18,0.00,5,Snow,225
2013-1-2,22,16,8,21,15,6,94,90,86,30.09,29.89,29.79,10,6,1,16,9,17,0.00,8,Snow,251
2013-1-3,21,10,-2,14,6,-5,89,84,71,30.17,30.04,29.83,10,9,1,16,11,24,0.00,4,Snow,252
2013-1-4,27,15,3,18,12,1,94,81,67,30.05,29.98,29.86,10,10,7,15,8,,0.00,0,,273
2013-1-5,23,11,-1,21,7,-5,95,87,77,30.02,29.95,29.86,10,9,1,15,3,,0.00,2,Snow,331
2013-1-6,20,10,-1,14,7,-4,93,84,65,30.13,30.02,29.76,10,9,7,14,6,20,0.00,4,Snow,200
2013-1-7,33,24,14,23,18,11,93,79,67,29.86,29.73,29.64,10,10,4,21,10,29,0.00,0,,233
2013-1-8,31,18,6,27,18,4,98,88,74,29.85,29.74,29.62,10,8,1,18,5,23,0.00,4,Snow,178
2013-1-9,30,24,19,26,18,14,89,77,66,30.21,30.01,29.66,10,8,1,29,16,37,0.00,6,Snow,234
2013-1-10,46,32,19,31,23,14,96,63,40,30.07,29.85,29.59,10,9,5,24,13,33,0.03,3,Rain,162
2013-1-11,32,27,21,32,31,20,100,99,92,29.57,29.44,29.32,10,4,1,15,6,18,0.07,8,Rain-Snow,102
2013-1-12,21,8,-6,19,1,-11,91,82,75,30.06,29.73,29.33,10,6,0,,,,0.00,8,Snow,-1
2013-1-13,7,0,-8,0,-6,-12,85,80,72,30.14,30.06,30.01,10,10,0,14,8,18,0.07,6,Snow,281
2013-1-14,12,6,0,3,-2,-6,83,77,66,30.24,30.19,30.13,10,10,5,16,6,20,0.00,6,Snow,244
2013-1-15,23,12,1,16,6,-2,87,71,51,30.12,29.88,29.48,10,10,3,17,8,29,0.00,4,Snow,201
2013-1-16,26,11,-4,25,3,-13,95,73,49,30.21,29.83,29.46,10,9,2,23,13,32,0.00,6,Snow,304
2013-1-17,6,0,-5,-2,-7,-12,82,73,61,30.30,30.25,30.14,10,10,5,14,6,17,0.00,6,Snow,271
2013-1-18,19,12,4,17,9,-3,89,85,73,30.12,29.80,29.66,10,7,1,14,6,,0.00,8,Snow,122
2013-1-19,26,8,-10,23,4,-15,94,83,76,30.20,29.85,29.57,10,6,0,30,11,46,0.00,7,Snow,293
2013-1-20,-2,-8,-16,-11,-16,-23,81,75,64,30.26,30.23,30.19,10,7,2,21,9,28,0.00,5,Snow,279
2013-1-21,-10,-16,-22,-20,-24,-28,78,71,59,30.21,30.19,30.16,10,10,5,15,9,21,0.00,3,,278
2013-1-22,-2,-12,-23,-9,-19,-29,80,73,61,30.24,30.18,30.09,10,10,10,8,4,,0.00,1,,249
2013-1-23,1,-10,-22,-2,-15,-28,85,73,54,30.57,30.28,30.04,10,8,2,21,8,28,0.00,4,Snow,304
2013-1-24,3,-10,-23,-3,-16,-28,79,70,57,30.57,30.34,29.96,10,9,1,15,5,21,0.00,5,Snow,149
2013-1-25,8,-2,-12,4,-4,-17,85,78,71,30.26,30.01,29.79,10,7,2,21,10,25,0.00,5,Snow,277
2013-1-26,13,-1,-15,2,-5,-20,81,73,60,30.25,30.12,30.02,10,10,10,13,5,,0.00,5,,145
2013-1-27,28,16,5,23,11,0,84,76,64,30.03,29.88,29.78,10,10,7,10,6,,0.00,2,,119
2013-1-28,31,28,26,31,27,22,99,93,80,29.79,29.75,29.65,10,4,0,8,4,,0.23,8,Rain-Snow,158
2013-1-29,28,20,11,28,20,8,96,91,83,29.83,29.69,29.58,10,4,1,17,7,22,0.01,8,Snow,319
2013-1-30,11,5,-1,7,0,-6,85,81,77,29.80,29.75,29.71,10,9,3,17,12,,0.00,8,Snow,312
2013-1-31,-1,-11,-21,-6,-16,-27,81,74,69,30.17,30.00,29.75,10,7,2,22,14,23,0.00,4,Snow,299